Tracking 29091 objects as of 17-Jul-2024
HD Live streaming from Space Station
objects crossing your sky now

STARLINK-5652

Track STARLINK-5652 now!
10-day predictions
STARLINK-5652 is classified as:


NORAD ID: 55334
Int'l Code: 2023-013D
Perigee: 567.7 km
Apogee: 569.8 km
Inclination: 43.0 °
Period: 95.9 minutes
Semi major axis: 6939 km
RCS: Unknown
Launch date: January 26, 2023
Source: United States (US)
Launch site: AIR FORCE EASTERN TEST RANGE (AFETR)
Your satellite tracking list
Your tracking list is empty




NASA's NSSDC Master Catalog

Two Line Element Set (TLE):
1 55334U 23013D   24198.63461613  .00011317  00000-0  86994-3 0  9995
2 55334  43.0031 325.4954 0001517 267.5955  92.4714 15.01720982 81302
Source of the keplerian elements: AFSPC